When you browse on this site, cookies collect data to enhance your experience and personalize the content and advertising you see.
Visit our Privacy Policy to learn more. By continuing to use the site, you agree to this use of cookies and data.

Hourly Weather Ugledar

Today, 13 August, Thursday

Time Temperature Precipitation Wind Pressure Humidity
00:00 +18°C° 0 mm 3 mps 743 mmHg 67%
01:00 +17°C° 0 mm 3 mps 743 mmHg 68%
02:00 +16°C° 0 mm 3 mps 743 mmHg 69%
03:00 +16°C° 0 mm 3 mps 743 mmHg 72%
04:00 +14°C° 0 mm 3 mps 743 mmHg 74%
05:00 +14°C° 0 mm 3 mps 743 mmHg 77%
06:00 +16°C° 0 mm 3 mps 743 mmHg 70%
07:00 +18°C° 0 mm 4 mps 743 mmHg 63%
08:00 +20°C° 0 mm 4 mps 744 mmHg 53%
09:00 +21°C° 0 mm 4 mps 744 mmHg 49%
10:00 +22°C° 0 mm 4 mps 744 mmHg 44%
11:00 +23°C° 0 mm 4 mps 744 mmHg 40%
12:00 +23°C° 0 mm 5 mps 744 mmHg 40%
13:00 +25°C° 0 mm 5 mps 744 mmHg 39%
14:00 +25°C° 0 mm 5 mps 744 mmHg 39%
15:00 +23°C° 0 mm 5 mps 744 mmHg 40%
16:00 +23°C° 0 mm 5 mps 744 mmHg 41%
17:00 +23°C° 0 mm 5 mps 744 mmHg 42%
18:00 +21°C° 0 mm 4 mps 744 mmHg 48%
19:00 +19°C° 0 mm 3 mps 744 mmHg 53%
20:00 +18°C° 0 mm 3 mps 744 mmHg 58%
21:00 +17°C° 0 mm 3 mps 744 mmHg 61%
22:00 +16°C° 0 mm 2 mps 744 mmHg 63%
23:00 +15°C° 0 mm 2 mps 744 mmHg 66%

Tomorrow, 14 August, Friday

Time Temperature Precipitation Wind Pressure Humidity
00:00 +15°C° 0 mm 2 mps 744 mmHg 67%
01:00 +15°C° 0 mm 1 mps 744 mmHg 69%
02:00 +14°C° 0 mm 1 mps 744 mmHg 70%
03:00 +14°C° 0 mm 1 mps 744 mmHg 70%
04:00 +14°C° 0 mm 1 mps 744 mmHg 69%
05:00 +14°C° 0 mm 1 mps 744 mmHg 69%
06:00 +16°C° 0 mm 2 mps 744 mmHg 64%
07:00 +18°C° 0 mm 2 mps 744 mmHg 60%
08:00 +19°C° 0 mm 2 mps 744 mmHg 55%
09:00 +20°C° 0 mm 3 mps 744 mmHg 51%
10:00 +21°C° 0 mm 3 mps 744 mmHg 48%
11:00 +21°C° 0 mm 4 mps 745 mmHg 45%
12:00 +21°C° 0 mm 4 mps 745 mmHg 44%
13:00 +22°C° 0 mm 4 mps 745 mmHg 43%
14:00 +22°C° 0 mm 5 mps 744 mmHg 42%
15:00 +22°C° 0 mm 4 mps 744 mmHg 41%
16:00 +22°C° 0 mm 4 mps 744 mmHg 41%
17:00 +21°C° 0 mm 4 mps 744 mmHg 40%
18:00 +20°C° 0 mm 3 mps 744 mmHg 45%
19:00 +18°C° 0 mm 3 mps 745 mmHg 50%
20:00 +17°C° 0 mm 3 mps 745 mmHg 55%
21:00 +16°C° 0 mm 3 mps 745 mmHg 58%
22:00 +14°C° 0 mm 3 mps 745 mmHg 61%
23:00 +15°C° 0 mm 2 mps 745 mmHg 64%

Day after tomorrow, 15 August, Saturday

Time Temperature Precipitation Wind Pressure Humidity
00:00 +14°C° 0 mm 2 mps 745 mmHg 69%
01:00 +13°C° 0 mm 2 mps 745 mmHg 74%
02:00 +13°C° 0 mm 2 mps 745 mmHg 80%
03:00 +13°C° 0 mm 2 mps 745 mmHg 83%
04:00 +12°C° 0 mm 2 mps 746 mmHg 86%
05:00 +11°C° 0 mm 3 mps 746 mmHg 90%
06:00 +13°C° 0 mm 3 mps 746 mmHg 78%
07:00 +17°C° 0 mm 3 mps 746 mmHg 66%
08:00 +19°C° 0 mm 4 mps 746 mmHg 55%
09:00 +20°C° 0 mm 4 mps 746 mmHg 49%
10:00 +21°C° 0 mm 4 mps 746 mmHg 42%
11:00 +22°C° 0 mm 4 mps 747 mmHg 36%
12:00 +23°C° 0 mm 4 mps 746 mmHg 35%
13:00 +23°C° 0 mm 4 mps 746 mmHg 34%
14:00 +25°C° 0 mm 4 mps 746 mmHg 33%
15:00 +23°C° 0 mm 4 mps 746 mmHg 34%
16:00 +23°C° 0 mm 4 mps 746 mmHg 35%
17:00 +22°C° 0 mm 5 mps 746 mmHg 36%
18:00 +20°C° 0 mm 4 mps 746 mmHg 40%
19:00 +19°C° 0 mm 3 mps 746 mmHg 44%
20:00 +17°C° 0 mm 3 mps 746 mmHg 48%
21:00 +16°C° 0 mm 3 mps 746 mmHg 50%
22:00 +15°C° 0 mm 2 mps 746 mmHg 52%
23:00 +15°C° 0 mm 2 mps 747 mmHg 54%

16 August, Sunday

Time Temperature Precipitation Wind Pressure Humidity
00:00 +14°C° 0 mm 2 mps 747 mmHg 56%
01:00 +14°C° 0 mm 2 mps 747 mmHg 57%
02:00 +14°C° 0 mm 1 mps 747 mmHg 59%
03:00 +14°C° 0 mm 2 mps 746 mmHg 61%
04:00 +13°C° 0 mm 2 mps 746 mmHg 63%
05:00 +13°C° 0 mm 2 mps 746 mmHg 64%
06:00 +15°C° 0 mm 2 mps 747 mmHg 58%
07:00 +18°C° 0 mm 2 mps 747 mmHg 52%
08:00 +20°C° 0 mm 2 mps 747 mmHg 46%
09:00 +21°C° 0 mm 3 mps 747 mmHg 42%
10:00 +22°C° 0 mm 3 mps 747 mmHg 38%
11:00 +24°C° 0 mm 3 mps 747 mmHg 34%
12:00 +25°C° 0 mm 3 mps 747 mmHg 33%
13:00 +26°C° 0 mm 3 mps 747 mmHg 32%
14:00 +26°C° 0 mm 3 mps 747 mmHg 30%
15:00 +26°C° 0 mm 3 mps 747 mmHg 32%
16:00 +26°C° 0 mm 3 mps 746 mmHg 34%
17:00 +26°C° 0 mm 3 mps 746 mmHg 35%
18:00 +24°C° 0 mm 3 mps 746 mmHg 40%
19:00 +21°C° 0 mm 2 mps 746 mmHg 44%
20:00 +19°C° 0 mm 2 mps 747 mmHg 49%
21:00 +20°C° 0 mm 1 mps 747 mmHg 51%
22:00 +19°C° 0 mm 1 mps 747 mmHg 53%
23:00 +19°C° 0 mm 1 mps 747 mmHg 55%

17 August, Monday

Time Temperature Precipitation Wind Pressure Humidity
00:00 +18°C° 0 mm 1 mps 747 mmHg 56%
01:00 +18°C° 0 mm 1 mps 747 mmHg 58%
02:00 +16°C° 0 mm 2 mps 746 mmHg 60%
03:00 +16°C° 0 mm 2 mps 746 mmHg 62%
04:00 +16°C° 0 mm 2 mps 746 mmHg 64%
05:00 +16°C° 0 mm 2 mps 746 mmHg 66%
06:00 +18°C° 0 mm 2 mps 747 mmHg 62%
07:00 +20°C° 0 mm 2 mps 747 mmHg 58%
08:00 +23°C° 0 mm 2 mps 747 mmHg 53%
09:00 +25°C° 0 mm 2 mps 747 mmHg 49%
10:00 +26°C° 0 mm 3 mps 747 mmHg 45%
11:00 +28°C° 0 mm 3 mps 746 mmHg 41%
12:00 +28°C° 0 mm 3 mps 746 mmHg 39%
13:00 +29°C° 0 mm 3 mps 746 mmHg 37%
14:00 +30°C° 0 mm 3 mps 746 mmHg 34%
15:00 +29°C° 0 mm 2 mps 745 mmHg 36%
16:00 +29°C° 0 mm 2 mps 745 mmHg 37%
17:00 +29°C° 0 mm 2 mps 745 mmHg 38%
18:00 +27°C° 0 mm 2 mps 745 mmHg 42%
19:00 +25°C° 0 mm 1 mps 745 mmHg 47%
20:00 +23°C° 0 mm 1 mps 745 mmHg 51%
21:00 +23°C° 0 mm 1 mps 744 mmHg 53%
22:00 +22°C° 0 mm 1 mps 744 mmHg 55%
23:00 +22°C° 0 mm 1 mps 744 mmHg 57%

18 August, Tuesday

Time Temperature Precipitation Wind Pressure Humidity
00:00 +21°C° 0 mm 1 mps 744 mmHg 59%
01:00 +19°C° 0 mm 0 mps 744 mmHg 60%
02:00 +18°C° 0 mm 0 mps 744 mmHg 62%
03:00 +18°C° 0 mm 0 mps 744 mmHg 63%
04:00 +18°C° 0 mm 0 mps 743 mmHg 64%
05:00 +20°C° 0 mm 1 mps 743 mmHg 65%
06:00 +22°C° 0 mm 1 mps 743 mmHg 58%
07:00 +25°C° 0 mm 1 mps 743 mmHg 51%
08:00 +27°C° 0 mm 1 mps 743 mmHg 44%
09:00 +29°C° 0 mm 1 mps 743 mmHg 40%
10:00 +30°C° 0 mm 1 mps 743 mmHg 36%
11:00 +29°C° 0 mm 0 mps 743 mmHg 33%
12:00 +31°C° 0 mm 1 mps 742 mmHg 33%
13:00 +31°C° 0 mm 1 mps 742 mmHg 33%
14:00 +31°C° 0 mm 1 mps 741 mmHg 32%
15:00 +31°C° 0 mm 1 mps 741 mmHg 33%
16:00 +30°C° 0 mm 1 mps 741 mmHg 35%
17:00 +30°C° 0 mm 1 mps 741 mmHg 36%
18:00 +28°C° 0 mm 1 mps 741 mmHg 39%
19:00 +27°C° 0 mm 1 mps 741 mmHg 42%
20:00 +25°C° 0 mm 1 mps 741 mmHg 45%
21:00 +24°C° 0 mm 1 mps 740 mmHg 48%
22:00 +24°C° 0 mm 1 mps 740 mmHg 50%
23:00 +23°C° 0 mm 1 mps 740 mmHg 52%
Show more